TimePST,TemperatureF,Dew PointF,Humidity,Sea Level PressureIn,VisibilityMPH,Wind Direction,Wind SpeedMPH,Gust SpeedMPH,PrecipitationIn,Events,Conditions,WindDirDegrees,DateUTC
12:53 AM,12.9,7.0,77,29.96,10.0,Calm,Calm,-,N/A,,Clear,0,2013-02-09 08:53:00
1:53 AM,12.0,6.1,77,29.98,10.0,Calm,Calm,-,N/A,,Clear,0,2013-02-09 09:53:00
2:53 AM,9.0,3.0,77,29.99,10.0,SSW,3.5,-,N/A,,Scattered Clouds,200,2013-02-09 10:53:00
3:03 AM,10.4,5.0,79,29.87,10.0,Calm,Calm,-,N/A,,Mostly Cloudy,0,2013-02-09 11:03:00
3:53 AM,12.0,6.1,77,29.97,10.0,SSE,3.5,-,N/A,,Overcast,160,2013-02-09 11:53:00
4:53 AM,16.0,8.1,71,29.96,10.0,Calm,Calm,-,N/A,,Overcast,0,2013-02-09 12:53:00
5:26 AM,14.0,6.8,73,29.88,10.0,Calm,Calm,-,N/A,,Scattered Clouds,0,2013-02-09 13:26:00
5:53 AM,12.0,7.0,80,29.98,10.0,Calm,Calm,-,N/A,,Clear,0,2013-02-09 13:53:00
6:53 AM,10.0,5.0,80,30.00,10.0,Calm,Calm,-,N/A,,Clear,0,2013-02-09 14:53:00
7:53 AM,10.0,3.9,76,30.04,10.0,Calm,Calm,-,N/A,,Clear,0,2013-02-09 15:53:00
8:53 AM,18.0,9.0,68,30.03,10.0,South,3.5,-,N/A,,Clear,180,2013-02-09 16:53:00
9:11 AM,21.2,10.4,63,29.93,10.0,Calm,Calm,-,N/A,,Mostly Cloudy,0,2013-02-09 17:11:00
9:28 AM,23.0,10.4,59,29.94,4.0,Calm,Calm,-,N/A,,Haze,0,2013-02-09 17:28:00
9:37 AM,24.8,12.2,59,29.94,10.0,Calm,Calm,-,N/A,,Mostly Cloudy,0,2013-02-09 17:37:00
9:44 AM,24.8,12.2,59,29.94,10.0,Calm,Calm,-,N/A,,Partly Cloudy,0,2013-02-09 17:44:00
9:53 AM,26.1,14.0,60,30.00,10.0,Calm,Calm,-,N/A,,Clear,0,2013-02-09 17:53:00
10:53 AM,28.9,12.9,51,29.98,10.0,Calm,Calm,-,N/A,,Clear,0,2013-02-09 18:53:00
11:53 AM,32.0,12.0,44,29.98,10.0,NNE,8.1,-,N/A,,Clear,20,2013-02-09 19:53:00
12:53 PM,33.1,12.0,42,29.99,10.0,NNE,9.2,-,N/A,,Clear,30,2013-02-09 20:53:00
1:53 PM,34.0,10.9,38,29.99,10.0,NNE,10.4,-,N/A,,Clear,30,2013-02-09 21:53:00
2:53 PM,34.0,12.0,40,30.01,10.0,NNE,4.6,-,N/A,,Clear,20,2013-02-09 22:53:00
3:53 PM,35.1,12.0,39,30.00,10.0,Variable,3.5,-,N/A,,Clear,0,2013-02-09 23:53:00
4:53 PM,30.9,12.0,46,30.02,10.0,NNE,3.5,-,N/A,,Clear,30,2013-02-10 00:53:00
5:53 PM,27.0,12.9,56,30.05,10.0,Calm,Calm,-,N/A,,Clear,0,2013-02-10 01:53:00
6:53 PM,23.0,12.9,65,30.11,10.0,Calm,Calm,-,N/A,,Clear,0,2013-02-10 02:53:00
7:53 PM,21.0,12.0,68,30.14,10.0,Calm,Calm,-,N/A,,Clear,0,2013-02-10 03:53:00
8:53 PM,19.9,12.0,71,30.13,10.0,Calm,Calm,-,N/A,,Clear,0,2013-02-10 04:53:00
9:53 PM,19.9,10.0,65,30.09,10.0,South,4.6,-,N/A,,Clear,180,2013-02-10 05:53:00
10:53 PM,18.0,9.0,68,30.09,10.0,Calm,Calm,-,N/A,,Clear,0,2013-02-10 06:53:00
11:53 PM,18.0,9.0,68,30.09,10.0,SW,3.5,-,N/A,,Clear,220,2013-02-10 07:53:00